#datetime,building,power
2023-05-16T00:00:00,mfh,29.92
2023-05-16T00:01:00,mfh,30.68
2023-05-16T00:02:00,mfh,29.63
2023-05-16T00:03:00,mfh,29.66
2023-05-16T00:04:00,mfh,28.98
2023-05-16T00:05:00,mfh,28.99
2023-05-16T00:06:00,mfh,29.16
2023-05-16T00:07:00,mfh,29.16
2023-05-16T00:08:00,mfh,29.61
2023-05-16T00:09:00,mfh,29.60
2023-05-16T00:10:00,mfh,29.74
2023-05-16T00:11:00,mfh,29.71
2023-05-16T00:12:00,mfh,29.78
2023-05-16T00:13:00,mfh,29.09
2023-05-16T00:14:00,mfh,29.08
2023-05-16T00:15:00,mfh,29.08
2023-05-16T00:16:00,mfh,29.31
2023-05-16T00:17:00,mfh,29.88
2023-05-16T00:18:00,mfh,30.02
2023-05-16T00:19:00,mfh,30.02
2023-05-16T00:20:00,mfh,30.06
2023-05-16T00:21:00,mfh,29.90
2023-05-16T00:22:00,mfh,29.45
2023-05-16T00:23:00,mfh,29.07
2023-05-16T00:24:00,mfh,29.00
2023-05-16T00:25:00,mfh,29.91
2023-05-16T00:26:00,mfh,29.35
2023-05-16T00:27:00,mfh,29.65
2023-05-16T00:28:00,mfh,29.24
2023-05-16T00:29:00,mfh,29.22
2023-05-16T00:30:00,mfh,28.55
2023-05-16T00:31:00,mfh,29.03
2023-05-16T00:32:00,mfh,28.99
2023-05-16T00:33:00,mfh,28.61
2023-05-16T00:34:00,mfh,29.15
2023-05-16T00:35:00,mfh,29.11
2023-05-16T00:36:00,mfh,29.59
2023-05-16T00:37:00,mfh,29.12
2023-05-16T00:38:00,mfh,29.24
2023-05-16T00:39:00,mfh,29.19
2023-05-16T00:40:00,mfh,28.45
2023-05-16T00:41:00,mfh,28.45
2023-05-16T00:42:00,mfh,28.36
2023-05-16T00:43:00,mfh,29.04
2023-05-16T00:44:00,mfh,29.16
2023-05-16T00:45:00,mfh,29.08
2023-05-16T00:46:00,mfh,29.02
2023-05-16T00:47:00,mfh,29.24
2023-05-16T00:48:00,mfh,28.48
2023-05-16T00:49:00,mfh,28.66
2023-05-16T00:50:00,mfh,28.69
2023-05-16T00:51:00,mfh,29.26
2023-05-16T00:52:00,mfh,29.30
2023-05-16T00:53:00,mfh,29.56
2023-05-16T00:54:00,mfh,29.29
2023-05-16T00:55:00,mfh,29.30
2023-05-16T00:56:00,mfh,29.34
2023-05-16T00:57:00,mfh,28.93
2023-05-16T00:58:00,mfh,28.54
2023-05-16T00:59:00,mfh,28.67
2023-05-16T01:00:00,mfh,30.25
2023-05-16T01:01:00,mfh,29.69
2023-05-16T01:02:00,mfh,28.92
2023-05-16T01:03:00,mfh,28.95
2023-05-16T01:04:00,mfh,29.00
2023-05-16T01:05:00,mfh,28.24
2023-05-16T01:06:00,mfh,28.78
2023-05-16T01:07:00,mfh,28.30
2023-05-16T01:08:00,mfh,28.27
2023-05-16T01:09:00,mfh,28.97
2023-05-16T01:10:00,mfh,29.10
2023-05-16T01:11:00,mfh,29.57
2023-05-16T01:12:00,mfh,29.09
2023-05-16T01:13:00,mfh,29.03
2023-05-16T01:14:00,mfh,28.34
2023-05-16T01:15:00,mfh,28.34
2023-05-16T01:16:00,mfh,28.34
2023-05-16T01:17:00,mfh,29.11
2023-05-16T01:18:00,mfh,29.09
2023-05-16T01:19:00,mfh,29.28
2023-05-16T01:20:00,mfh,29.18
2023-05-16T01:21:00,mfh,29.24
2023-05-16T01:22:00,mfh,29.40
2023-05-16T01:23:00,mfh,28.66
2023-05-16T01:24:00,mfh,28.57
2023-05-16T01:25:00,mfh,29.25
2023-05-16T01:26:00,mfh,29.18
2023-05-16T01:27:00,mfh,29.63
2023-05-16T01:28:00,mfh,29.11
2023-05-16T01:29:00,mfh,29.07
2023-05-16T01:30:00,mfh,29.11
2023-05-16T01:31:00,mfh,28.38
2023-05-16T01:32:00,mfh,28.83
2023-05-16T01:33:00,mfh,28.58
2023-05-16T01:34:00,mfh,28.55
2023-05-16T01:35:00,mfh,31.03
2023-05-16T01:36:00,mfh,31.43
2023-05-16T01:37:00,mfh,31.00
2023-05-16T01:38:00,mfh,30.90
2023-05-16T01:39:00,mfh,30.86
2023-05-16T01:40:00,mfh,30.84
2023-05-16T01:41:00,mfh,28.54
2023-05-16T01:42:00,mfh,28.57
2023-05-16T01:43:00,mfh,28.94
2023-05-16T01:44:00,mfh,30.32
2023-05-16T01:45:00,mfh,29.72
2023-05-16T01:46:00,mfh,29.93
2023-05-16T01:47:00,mfh,30.17
2023-05-16T01:48:00,mfh,29.31
2023-05-16T01:49:00,mfh,28.65
2023-05-16T01:50:00,mfh,28.92
2023-05-16T01:51:00,mfh,28.42
2023-05-16T01:52:00,mfh,29.00
2023-05-16T01:53:00,mfh,29.59
2023-05-16T01:54:00,mfh,29.27
2023-05-16T01:55:00,mfh,29.25
2023-05-16T01:56:00,mfh,29.17
2023-05-16T01:57:00,mfh,28.51
2023-05-16T01:58:00,mfh,28.47
2023-05-16T01:59:00,mfh,28.55
2023-05-16T02:00:00,mfh,28.45
2023-05-16T02:01:00,mfh,29.54
2023-05-16T02:02:00,mfh,29.25
2023-05-16T02:03:00,mfh,29.20
2023-05-16T02:04:00,mfh,29.20
2023-05-16T02:05:00,mfh,29.26
2023-05-16T02:06:00,mfh,29.25
2023-05-16T02:07:00,mfh,28.59
2023-05-16T02:08:00,mfh,28.56
2023-05-16T02:09:00,mfh,28.52
2023-05-16T02:10:00,mfh,29.75
2023-05-16T02:11:00,mfh,29.07
2023-05-16T02:12:00,mfh,29.07
2023-05-16T02:13:00,mfh,29.25
2023-05-16T02:14:00,mfh,29.75
2023-05-16T02:15:00,mfh,28.52
2023-05-16T02:16:00,mfh,28.72
2023-05-16T02:17:00,mfh,28.62
2023-05-16T02:18:00,mfh,29.38
2023-05-16T02:19:00,mfh,29.22
2023-05-16T02:20:00,mfh,30.49
2023-05-16T02:21:00,mfh,30.09
2023-05-16T02:22:00,mfh,30.03
2023-05-16T02:23:00,mfh,30.52
2023-05-16T02:24:00,mfh,29.63
2023-05-16T02:25:00,mfh,29.57
2023-05-16T02:26:00,mfh,29.68
2023-05-16T02:27:00,mfh,29.83
2023-05-16T02:28:00,mfh,29.62
2023-05-16T02:29:00,mfh,29.42
2023-05-16T02:30:00,mfh,29.78
2023-05-16T02:31:00,mfh,29.43
2023-05-16T02:32:00,mfh,29.44
2023-05-16T02:33:00,mfh,28.62
2023-05-16T02:34:00,mfh,28.55
2023-05-16T02:35:00,mfh,28.55
2023-05-16T02:36:00,mfh,28.55
2023-05-16T02:37:00,mfh,30.08
2023-05-16T02:38:00,mfh,29.32
2023-05-16T02:39:00,mfh,29.35
2023-05-16T02:40:00,mfh,29.33
2023-05-16T02:41:00,mfh,29.77
2023-05-16T02:42:00,mfh,29.35
2023-05-16T02:43:00,mfh,28.74
2023-05-16T02:44:00,mfh,28.83
2023-05-16T02:45:00,mfh,29.35
2023-05-16T02:46:00,mfh,29.35
2023-05-16T02:47:00,mfh,29.35
2023-05-16T02:48:00,mfh,29.74
2023-05-16T02:49:00,mfh,29.37
2023-05-16T02:50:00,mfh,28.77
2023-05-16T02:51:00,mfh,28.68
2023-05-16T02:52:00,mfh,28.90
2023-05-16T02:53:00,mfh,28.67
2023-05-16T02:54:00,mfh,29.24
2023-05-16T02:55:00,mfh,29.34
2023-05-16T02:56:00,mfh,29.26
2023-05-16T02:57:00,mfh,29.49
2023-05-16T02:58:00,mfh,29.38
2023-05-16T02:59:00,mfh,29.69
2023-05-16T03:00:00,mfh,28.78
2023-05-16T03:01:00,mfh,28.76
2023-05-16T03:02:00,mfh,28.69
2023-05-16T03:03:00,mfh,29.24
2023-05-16T03:04:00,mfh,29.30
2023-05-16T03:05:00,mfh,29.67
2023-05-16T03:06:00,mfh,29.54
2023-05-16T03:07:00,mfh,29.22
2023-05-16T03:08:00,mfh,28.84
2023-05-16T03:09:00,mfh,28.66
2023-05-16T03:10:00,mfh,28.72
2023-05-16T03:11:00,mfh,28.58
2023-05-16T03:12:00,mfh,29.13
2023-05-16T03:13:00,mfh,29.18
2023-05-16T03:14:00,mfh,29.18
2023-05-16T03:15:00,mfh,30.23
2023-05-16T03:16:00,mfh,29.24
2023-05-16T03:17:00,mfh,28.55
2023-05-16T03:18:00,mfh,28.56
2023-05-16T03:19:00,mfh,29.05
2023-05-16T03:20:00,mfh,28.70
2023-05-16T03:21:00,mfh,29.35
2023-05-16T03:22:00,mfh,29.53
2023-05-16T03:23:00,mfh,29.33
2023-05-16T03:24:00,mfh,29.25
2023-05-16T03:25:00,mfh,28.53
2023-05-16T03:26:00,mfh,28.52
2023-05-16T03:27:00,mfh,28.51
2023-05-16T03:28:00,mfh,28.57
2023-05-16T03:29:00,mfh,28.56
2023-05-16T03:30:00,mfh,29.69
2023-05-16T03:31:00,mfh,29.30
2023-05-16T03:32:00,mfh,29.28
2023-05-16T03:33:00,mfh,29.26
2023-05-16T03:34:00,mfh,29.78
2023-05-16T03:35:00,mfh,28.50
2023-05-16T03:36:00,mfh,28.44
2023-05-16T03:37:00,mfh,28.80
2023-05-16T03:38:00,mfh,29.51
2023-05-16T03:39:00,mfh,29.03
2023-05-16T03:40:00,mfh,29.16
2023-05-16T03:41:00,mfh,29.66
2023-05-16T03:42:00,mfh,29.20
2023-05-16T03:43:00,mfh,28.55
2023-05-16T03:44:00,mfh,28.47
2023-05-16T03:45:00,mfh,28.41
2023-05-16T03:46:00,mfh,28.41
2023-05-16T03:47:00,mfh,29.01
2023-05-16T03:48:00,mfh,29.01
2023-05-16T03:49:00,mfh,29.06
2023-05-16T03:50:00,mfh,29.11
2023-05-16T03:51:00,mfh,29.91
2023-05-16T03:52:00,mfh,28.77
2023-05-16T03:53:00,mfh,29.37
2023-05-16T03:54:00,mfh,28.63
2023-05-16T03:55:00,mfh,28.53
2023-05-16T03:56:00,mfh,29.16
2023-05-16T03:57:00,mfh,29.16
2023-05-16T03:58:00,mfh,29.21
2023-05-16T03:59:00,mfh,29.13
2023-05-16T04:00:00,mfh,29.15
2023-05-16T04:01:00,mfh,29.82
2023-05-16T04:02:00,mfh,30.03
2023-05-16T04:03:00,mfh,30.63
2023-05-16T04:04:00,mfh,30.15
2023-05-16T04:05:00,mfh,31.40
2023-05-16T04:06:00,mfh,30.84
2023-05-16T04:07:00,mfh,30.71
2023-05-16T04:08:00,mfh,29.07
2023-05-16T04:09:00,mfh,29.06
2023-05-16T04:10:00,mfh,28.38
2023-05-16T04:11:00,mfh,29.79
2023-05-16T04:12:00,mfh,29.39
2023-05-16T04:13:00,mfh,29.96
2023-05-16T04:14:00,mfh,29.94
2023-05-16T04:15:00,mfh,29.95
2023-05-16T04:16:00,mfh,30.02
2023-05-16T04:17:00,mfh,30.01
2023-05-16T04:18:00,mfh,29.64
2023-05-16T04:19:00,mfh,29.27
2023-05-16T04:20:00,mfh,29.98
2023-05-16T04:21:00,mfh,29.85
2023-05-16T04:22:00,mfh,39.31
2023-05-16T04:23:00,mfh,39.92
2023-05-16T04:24:00,mfh,40.07
2023-05-16T04:25:00,mfh,40.10
2023-05-16T04:26:00,mfh,40.08
2023-05-16T04:27:00,mfh,39.55
2023-05-16T04:28:00,mfh,39.24
2023-05-16T04:29:00,mfh,39.79
2023-05-16T04:30:00,mfh,40.30
2023-05-16T04:31:00,mfh,40.07
2023-05-16T04:32:00,mfh,40.04
2023-05-16T04:33:00,mfh,39.94
2023-05-16T04:34:00,mfh,39.92
2023-05-16T04:35:00,mfh,39.95
2023-05-16T04:36:00,mfh,39.34
2023-05-16T04:37:00,mfh,40.10
2023-05-16T04:38:00,mfh,39.51
2023-05-16T04:39:00,mfh,39.92
2023-05-16T04:40:00,mfh,40.09
2023-05-16T04:41:00,mfh,40.57
2023-05-16T04:42:00,mfh,40.16
2023-05-16T04:43:00,mfh,41.05
2023-05-16T04:44:00,mfh,40.76
2023-05-16T04:45:00,mfh,39.56
2023-05-16T04:46:00,mfh,39.65
2023-05-16T04:47:00,mfh,40.36
2023-05-16T04:48:00,mfh,41.20
2023-05-16T04:49:00,mfh,40.58
2023-05-16T04:50:00,mfh,40.61
2023-05-16T04:51:00,mfh,41.16
2023-05-16T04:52:00,mfh,40.63
2023-05-16T04:53:00,mfh,39.87
2023-05-16T04:54:00,mfh,39.88
2023-05-16T04:55:00,mfh,40.20
2023-05-16T04:56:00,mfh,40.57
2023-05-16T04:57:00,mfh,40.70
2023-05-16T04:58:00,mfh,40.58
2023-05-16T04:59:00,mfh,40.62
2023-05-16T05:00:00,mfh,40.49
2023-05-16T05:01:00,mfh,56.99
2023-05-16T05:02:00,mfh,61.22
2023-05-16T05:03:00,mfh,60.47
2023-05-16T05:04:00,mfh,61.01
2023-05-16T05:05:00,mfh,61.46
2023-05-16T05:06:00,mfh,62.93
2023-05-16T05:07:00,mfh,62.29
2023-05-16T05:08:00,mfh,62.13
2023-05-16T05:09:00,mfh,62.48
2023-05-16T05:10:00,mfh,62.68
2023-05-16T05:11:00,mfh,62.14
2023-05-16T05:12:00,mfh,61.84
2023-05-16T05:13:00,mfh,62.55
2023-05-16T05:14:00,mfh,62.36
2023-05-16T05:15:00,mfh,62.19
2023-05-16T05:16:00,mfh,62.22
2023-05-16T05:17:00,mfh,62.37
2023-05-16T05:18:00,mfh,61.58
2023-05-16T05:19:00,mfh,60.90
2023-05-16T05:20:00,mfh,60.80
2023-05-16T05:21:00,mfh,60.91
2023-05-16T05:22:00,mfh,60.70
2023-05-16T05:23:00,mfh,61.32
2023-05-16T05:24:00,mfh,61.18
2023-05-16T05:25:00,mfh,61.52
2023-05-16T05:26:00,mfh,61.28
2023-05-16T05:27:00,mfh,60.66
2023-05-16T05:28:00,mfh,60.66
2023-05-16T05:29:00,mfh,61.74
2023-05-16T05:30:00,mfh,61.37
2023-05-16T05:31:00,mfh,61.18
2023-05-16T05:32:00,mfh,61.39
2023-05-16T05:33:00,mfh,61.25
2023-05-16T05:34:00,mfh,62.03
2023-05-16T05:35:00,mfh,63.10
2023-05-16T05:36:00,mfh,61.59
2023-05-16T05:37:00,mfh,61.56
2023-05-16T05:38:00,mfh,61.67
2023-05-16T05:39:00,mfh,61.75
2023-05-16T05:40:00,mfh,62.32
2023-05-16T05:41:00,mfh,61.65
2023-05-16T05:42:00,mfh,61.83
2023-05-16T05:43:00,mfh,61.75
2023-05-16T05:44:00,mfh,60.91
2023-05-16T05:45:00,mfh,61.04
2023-05-16T05:46:00,mfh,62.20
2023-05-16T05:47:00,mfh,62.44
2023-05-16T05:48:00,mfh,63.61
2023-05-16T05:49:00,mfh,63.15
2023-05-16T05:50:00,mfh,63.45
2023-05-16T05:51:00,mfh,63.18
2023-05-16T05:52:00,mfh,63.20
2023-05-16T05:53:00,mfh,63.13
2023-05-16T05:54:00,mfh,62.73
2023-05-16T05:55:00,mfh,62.24
2023-05-16T05:56:00,mfh,62.19
2023-05-16T05:57:00,mfh,63.82
2023-05-16T05:58:00,mfh,62.84
2023-05-16T05:59:00,mfh,63.53
2023-05-16T06:00:00,mfh,62.94
2023-05-16T06:01:00,mfh,67.02
2023-05-16T06:02:00,mfh,67.56
2023-05-16T06:03:00,mfh,66.37
2023-05-16T06:04:00,mfh,66.46
2023-05-16T06:05:00,mfh,66.34
2023-05-16T06:06:00,mfh,67.56
2023-05-16T06:07:00,mfh,67.31
2023-05-16T06:08:00,mfh,66.32
2023-05-16T06:09:00,mfh,66.09
2023-05-16T06:10:00,mfh,66.07
2023-05-16T06:11:00,mfh,66.66
2023-05-16T06:12:00,mfh,66.99
2023-05-16T06:13:00,mfh,65.97
2023-05-16T06:14:00,mfh,65.96
2023-05-16T06:15:00,mfh,66.01
2023-05-16T06:16:00,mfh,66.74
2023-05-16T06:17:00,mfh,66.67
2023-05-16T06:18:00,mfh,66.45
2023-05-16T06:19:00,mfh,66.75
2023-05-16T06:20:00,mfh,66.89
2023-05-16T06:21:00,mfh,66.80
2023-05-16T06:22:00,mfh,66.66
2023-05-16T06:23:00,mfh,66.55
2023-05-16T06:24:00,mfh,66.59
2023-05-16T06:25:00,mfh,66.01
2023-05-16T06:26:00,mfh,66.58
2023-05-16T06:27:00,mfh,66.63
2023-05-16T06:28:00,mfh,67.21
2023-05-16T06:29:00,mfh,67.72
2023-05-16T06:30:00,mfh,68.42
2023-05-16T06:31:00,mfh,68.44
2023-05-16T06:32:00,mfh,68.54
2023-05-16T06:33:00,mfh,68.21
2023-05-16T06:34:00,mfh,68.83
2023-05-16T06:35:00,mfh,69.16
2023-05-16T06:36:00,mfh,66.89
2023-05-16T06:37:00,mfh,66.99
2023-05-16T06:38:00,mfh,66.32
2023-05-16T06:39:00,mfh,66.93
2023-05-16T06:40:00,mfh,67.46
2023-05-16T06:41:00,mfh,67.44
2023-05-16T06:42:00,mfh,67.69
2023-05-16T06:43:00,mfh,68.75
2023-05-16T06:44:00,mfh,67.61
2023-05-16T06:45:00,mfh,67.74
2023-05-16T06:46:00,mfh,67.82
2023-05-16T06:47:00,mfh,68.55
2023-05-16T06:48:00,mfh,69.23
2023-05-16T06:49:00,mfh,68.64
2023-05-16T06:50:00,mfh,69.31
2023-05-16T06:51:00,mfh,69.70
2023-05-16T06:52:00,mfh,69.17
2023-05-16T06:53:00,mfh,69.09
2023-05-16T06:54:00,mfh,68.75
2023-05-16T06:55:00,mfh,68.73
2023-05-16T06:56:00,mfh,68.79
2023-05-16T06:57:00,mfh,68.68
2023-05-16T06:58:00,mfh,68.07
2023-05-16T06:59:00,mfh,69.22
2023-05-16T07:00:00,mfh,68.16
2023-05-16T07:01:00,mfh,68.83
2023-05-16T07:02:00,mfh,68.75
2023-05-16T07:03:00,mfh,69.28
2023-05-16T07:04:00,mfh,68.66
2023-05-16T07:05:00,mfh,68.20
2023-05-16T07:06:00,mfh,68.25
2023-05-16T07:07:00,mfh,67.86
2023-05-16T07:08:00,mfh,66.85
2023-05-16T07:09:00,mfh,68.27
2023-05-16T07:10:00,mfh,66.81
2023-05-16T07:11:00,mfh,67.06
2023-05-16T07:12:00,mfh,66.39
2023-05-16T07:13:00,mfh,66.75
2023-05-16T07:14:00,mfh,66.91
2023-05-16T07:15:00,mfh,67.20
2023-05-16T07:16:00,mfh,67.27
2023-05-16T07:17:00,mfh,67.90
2023-05-16T07:18:00,mfh,67.44
2023-05-16T07:19:00,mfh,67.54
2023-05-16T07:20:00,mfh,67.31
2023-05-16T07:21:00,mfh,66.81
2023-05-16T07:22:00,mfh,66.69
2023-05-16T07:23:00,mfh,66.96
2023-05-16T07:24:00,mfh,66.96
2023-05-16T07:25:00,mfh,67.15
2023-05-16T07:26:00,mfh,67.09
2023-05-16T07:27:00,mfh,67.67
2023-05-16T07:28:00,mfh,67.35
2023-05-16T07:29:00,mfh,67.41
2023-05-16T07:30:00,mfh,67.31
2023-05-16T07:31:00,mfh,66.70
2023-05-16T07:32:00,mfh,66.67
2023-05-16T07:33:00,mfh,66.78
2023-05-16T07:34:00,mfh,67.53
2023-05-16T07:35:00,mfh,69.15
2023-05-16T07:36:00,mfh,70.03
2023-05-16T07:37:00,mfh,68.69
2023-05-16T07:38:00,mfh,68.34
2023-05-16T07:39:00,mfh,68.32
2023-05-16T07:40:00,mfh,68.54
2023-05-16T07:41:00,mfh,68.66
2023-05-16T07:42:00,mfh,68.55
2023-05-16T07:43:00,mfh,68.44
2023-05-16T07:44:00,mfh,67.87
2023-05-16T07:45:00,mfh,67.98
2023-05-16T07:46:00,mfh,67.86
2023-05-16T07:47:00,mfh,67.76
2023-05-16T07:48:00,mfh,68.02
2023-05-16T07:49:00,mfh,68.11
2023-05-16T07:50:00,mfh,68.01
2023-05-16T07:51:00,mfh,68.08
2023-05-16T07:52:00,mfh,68.16
2023-05-16T07:53:00,mfh,68.17
2023-05-16T07:54:00,mfh,66.90
2023-05-16T07:55:00,mfh,66.95
2023-05-16T07:56:00,mfh,65.98
2023-05-16T07:57:00,mfh,66.62
2023-05-16T07:58:00,mfh,66.62
2023-05-16T07:59:00,mfh,66.42
2023-05-16T08:00:00,mfh,66.37
2023-05-16T08:01:00,mfh,66.29
2023-05-16T08:02:00,mfh,67.15
2023-05-16T08:03:00,mfh,66.73
2023-05-16T08:04:00,mfh,66.73
2023-05-16T08:05:00,mfh,66.61
2023-05-16T08:06:00,mfh,66.61
2023-05-16T08:07:00,mfh,66.49
2023-05-16T08:08:00,mfh,66.31
2023-05-16T08:09:00,mfh,67.18
2023-05-16T08:10:00,mfh,67.01
2023-05-16T08:11:00,mfh,66.99
2023-05-16T08:12:00,mfh,68.05
2023-05-16T08:13:00,mfh,67.45
2023-05-16T08:14:00,mfh,67.90
2023-05-16T08:15:00,mfh,68.83
2023-05-16T08:16:00,mfh,67.01
2023-05-16T08:17:00,mfh,66.73
2023-05-16T08:18:00,mfh,67.44
2023-05-16T08:19:00,mfh,68.01
2023-05-16T08:20:00,mfh,68.54
2023-05-16T08:21:00,mfh,67.66
2023-05-16T08:22:00,mfh,68.14
2023-05-16T08:23:00,mfh,67.73
2023-05-16T08:24:00,mfh,67.70
2023-05-16T08:25:00,mfh,67.35
2023-05-16T08:26:00,mfh,67.43
2023-05-16T08:27:00,mfh,67.85
2023-05-16T08:28:00,mfh,66.95
2023-05-16T08:29:00,mfh,66.86
2023-05-16T08:30:00,mfh,67.80
2023-05-16T08:31:00,mfh,67.71
2023-05-16T08:32:00,mfh,67.95
2023-05-16T08:33:00,mfh,68.52
2023-05-16T08:34:00,mfh,68.48
2023-05-16T08:35:00,mfh,68.53
2023-05-16T08:36:00,mfh,68.44
2023-05-16T08:37:00,mfh,68.78
2023-05-16T08:38:00,mfh,69.52
2023-05-16T08:39:00,mfh,68.30
2023-05-16T08:40:00,mfh,68.08
2023-05-16T08:41:00,mfh,68.20
2023-05-16T08:42:00,mfh,68.80
2023-05-16T08:43:00,mfh,68.92
2023-05-16T08:44:00,mfh,68.94
2023-05-16T08:45:00,mfh,70.49
2023-05-16T08:46:00,mfh,69.19
2023-05-16T08:47:00,mfh,69.33
2023-05-16T08:48:00,mfh,69.60
2023-05-16T08:49:00,mfh,69.32
2023-05-16T08:50:00,mfh,68.93
2023-05-16T08:51:00,mfh,68.72
2023-05-16T08:52:00,mfh,68.98
2023-05-16T08:53:00,mfh,69.56
2023-05-16T08:54:00,mfh,75.97
2023-05-16T08:55:00,mfh,77.16
2023-05-16T08:56:00,mfh,76.95
2023-05-16T08:57:00,mfh,76.80
2023-05-16T08:58:00,mfh,76.98
2023-05-16T08:59:00,mfh,78.45
2023-05-16T09:00:00,mfh,77.23
2023-05-16T09:01:00,mfh,76.94
2023-05-16T09:02:00,mfh,77.80
2023-05-16T09:03:00,mfh,78.69
2023-05-16T09:04:00,mfh,78.57
2023-05-16T09:05:00,mfh,78.34
2023-05-16T09:06:00,mfh,77.52
2023-05-16T09:07:00,mfh,76.88
2023-05-16T09:08:00,mfh,78.52
2023-05-16T09:09:00,mfh,78.50
2023-05-16T09:10:00,mfh,77.10
2023-05-16T09:11:00,mfh,77.24
2023-05-16T09:12:00,mfh,76.28
2023-05-16T09:13:00,mfh,76.28
2023-05-16T09:14:00,mfh,76.92
2023-05-16T09:15:00,mfh,76.95
2023-05-16T09:16:00,mfh,76.92
2023-05-16T09:17:00,mfh,77.95
2023-05-16T09:18:00,mfh,76.82
2023-05-16T09:19:00,mfh,77.01
2023-05-16T09:20:00,mfh,77.06
2023-05-16T09:21:00,mfh,77.20
2023-05-16T09:22:00,mfh,77.04
2023-05-16T09:23:00,mfh,77.63
2023-05-16T09:24:00,mfh,76.68
2023-05-16T09:25:00,mfh,76.53
2023-05-16T09:26:00,mfh,76.44
2023-05-16T09:27:00,mfh,77.27
2023-05-16T09:28:00,mfh,77.05
2023-05-16T09:29:00,mfh,77.65
2023-05-16T09:30:00,mfh,77.39
2023-05-16T09:31:00,mfh,76.84
2023-05-16T09:32:00,mfh,77.84
2023-05-16T09:33:00,mfh,77.58
2023-05-16T09:34:00,mfh,77.35
2023-05-16T09:35:00,mfh,77.37
2023-05-16T09:36:00,mfh,76.74
2023-05-16T09:37:00,mfh,76.88
2023-05-16T09:38:00,mfh,77.78
2023-05-16T09:39:00,mfh,77.52
2023-05-16T09:40:00,mfh,76.84
2023-05-16T09:41:00,mfh,76.83
2023-05-16T09:42:00,mfh,76.87
2023-05-16T09:43:00,mfh,76.34
2023-05-16T09:44:00,mfh,76.67
2023-05-16T09:45:00,mfh,77.60
2023-05-16T09:46:00,mfh,77.59
2023-05-16T09:47:00,mfh,77.96
2023-05-16T09:48:00,mfh,77.29
2023-05-16T09:49:00,mfh,77.35
2023-05-16T09:50:00,mfh,77.33
2023-05-16T09:51:00,mfh,78.12
2023-05-16T09:52:00,mfh,76.68
2023-05-16T09:53:00,mfh,76.58
2023-05-16T09:54:00,mfh,76.51
2023-05-16T09:55:00,mfh,76.74
2023-05-16T09:56:00,mfh,76.45
2023-05-16T09:57:00,mfh,76.44
2023-05-16T09:58:00,mfh,76.09
2023-05-16T09:59:00,mfh,76.11
2023-05-16T10:00:00,mfh,76.10
2023-05-16T10:01:00,mfh,76.69
2023-05-16T10:02:00,mfh,76.42
2023-05-16T10:03:00,mfh,76.35
2023-05-16T10:04:00,mfh,75.90
2023-05-16T10:05:00,mfh,76.51
2023-05-16T10:06:00,mfh,76.36
2023-05-16T10:07:00,mfh,77.14
2023-05-16T10:08:00,mfh,76.24
2023-05-16T10:09:00,mfh,76.30
2023-05-16T10:10:00,mfh,75.80
2023-05-16T10:11:00,mfh,75.58
2023-05-16T10:12:00,mfh,75.58
2023-05-16T10:13:00,mfh,76.03
2023-05-16T10:14:00,mfh,77.12
2023-05-16T10:15:00,mfh,77.80
2023-05-16T10:16:00,mfh,77.42
2023-05-16T10:17:00,mfh,77.26
2023-05-16T10:18:00,mfh,76.77
2023-05-16T10:19:00,mfh,77.09
2023-05-16T10:20:00,mfh,77.84
2023-05-16T10:21:00,mfh,76.66
2023-05-16T10:22:00,mfh,76.47
2023-05-16T10:23:00,mfh,76.38
2023-05-16T10:24:00,mfh,77.12
2023-05-16T10:25:00,mfh,77.11
2023-05-16T10:26:00,mfh,76.40
2023-05-16T10:27:00,mfh,76.35
2023-05-16T10:28:00,mfh,76.59
2023-05-16T10:29:00,mfh,76.46
2023-05-16T10:30:00,mfh,76.53
2023-05-16T10:31:00,mfh,76.55
2023-05-16T10:32:00,mfh,76.30
2023-05-16T10:33:00,mfh,76.19
2023-05-16T10:34:00,mfh,75.85
2023-05-16T10:35:00,mfh,75.71
2023-05-16T10:36:00,mfh,76.34
2023-05-16T10:37:00,mfh,76.30
2023-05-16T10:38:00,mfh,76.74
2023-05-16T10:39:00,mfh,75.22
2023-05-16T10:40:00,mfh,75.78
2023-05-16T10:41:00,mfh,76.09
2023-05-16T10:42:00,mfh,76.30
2023-05-16T10:43:00,mfh,75.93
2023-05-16T10:44:00,mfh,75.06
2023-05-16T10:45:00,mfh,75.35
2023-05-16T10:46:00,mfh,76.10
2023-05-16T10:47:00,mfh,76.66
2023-05-16T10:48:00,mfh,76.97
2023-05-16T10:49:00,mfh,76.48
2023-05-16T10:50:00,mfh,76.42
2023-05-16T10:51:00,mfh,76.37
2023-05-16T10:52:00,mfh,75.91
2023-05-16T10:53:00,mfh,77.17
2023-05-16T10:54:00,mfh,76.98
2023-05-16T10:55:00,mfh,77.41
2023-05-16T10:56:00,mfh,76.56
2023-05-16T10:57:00,mfh,76.75
2023-05-16T10:58:00,mfh,76.50
2023-05-16T10:59:00,mfh,76.34
2023-05-16T11:00:00,mfh,76.42
2023-05-16T11:01:00,mfh,76.30
2023-05-16T11:02:00,mfh,76.89
2023-05-16T11:03:00,mfh,76.52
2023-05-16T11:04:00,mfh,76.60
2023-05-16T11:05:00,mfh,77.30
2023-05-16T11:06:00,mfh,76.58
2023-05-16T11:07:00,mfh,76.18
2023-05-16T11:08:00,mfh,77.84
2023-05-16T11:09:00,mfh,78.35
2023-05-16T11:10:00,mfh,78.57
2023-05-16T11:11:00,mfh,77.99
2023-05-16T11:12:00,mfh,78.28
2023-05-16T11:13:00,mfh,78.01
2023-05-16T11:14:00,mfh,77.89
2023-05-16T11:15:00,mfh,77.50
2023-05-16T11:16:00,mfh,77.61
2023-05-16T11:17:00,mfh,77.99
2023-05-16T11:18:00,mfh,77.47
2023-05-16T11:19:00,mfh,76.62
2023-05-16T11:20:00,mfh,75.58
2023-05-16T11:21:00,mfh,76.96
2023-05-16T11:22:00,mfh,77.39
2023-05-16T11:23:00,mfh,77.22
2023-05-16T11:24:00,mfh,77.20
2023-05-16T11:25:00,mfh,77.29
2023-05-16T11:26:00,mfh,77.20
2023-05-16T11:27:00,mfh,77.01
2023-05-16T11:28:00,mfh,77.28
2023-05-16T11:29:00,mfh,76.67
2023-05-16T11:30:00,mfh,77.03
2023-05-16T11:31:00,mfh,76.60
2023-05-16T11:32:00,mfh,77.13
2023-05-16T11:33:00,mfh,77.42
2023-05-16T11:34:00,mfh,77.78
2023-05-16T11:35:00,mfh,77.56
2023-05-16T11:36:00,mfh,76.91
2023-05-16T11:37:00,mfh,77.05
2023-05-16T11:38:00,mfh,76.84
2023-05-16T11:39:00,mfh,76.76
2023-05-16T11:40:00,mfh,76.32
2023-05-16T11:41:00,mfh,76.35
2023-05-16T11:42:00,mfh,75.81
2023-05-16T11:43:00,mfh,76.11
2023-05-16T11:44:00,mfh,76.79
2023-05-16T11:45:00,mfh,76.89
2023-05-16T11:46:00,mfh,76.86
2023-05-16T11:47:00,mfh,76.70
2023-05-16T11:48:00,mfh,76.56
2023-05-16T11:49:00,mfh,76.76
2023-05-16T11:50:00,mfh,76.06
2023-05-16T11:51:00,mfh,75.98
2023-05-16T11:52:00,mfh,75.59
2023-05-16T11:53:00,mfh,75.34
2023-05-16T11:54:00,mfh,75.35
2023-05-16T11:55:00,mfh,75.70
2023-05-16T11:56:00,mfh,75.52
2023-05-16T11:57:00,mfh,75.82
2023-05-16T11:58:00,mfh,76.08
2023-05-16T11:59:00,mfh,76.83
2023-05-16T12:00:00,mfh,75.97
2023-05-16T12:01:00,mfh,76.01
2023-05-16T12:02:00,mfh,75.91
2023-05-16T12:03:00,mfh,76.26
2023-05-16T12:04:00,mfh,76.32
2023-05-16T12:05:00,mfh,75.34
2023-05-16T12:06:00,mfh,75.35
2023-05-16T12:07:00,mfh,75.45
2023-05-16T12:08:00,mfh,76.26
2023-05-16T12:09:00,mfh,75.89
2023-05-16T12:10:00,mfh,76.09
2023-05-16T12:11:00,mfh,76.12
2023-05-16T12:12:00,mfh,76.10
2023-05-16T12:13:00,mfh,76.59
2023-05-16T12:14:00,mfh,76.56
2023-05-16T12:15:00,mfh,76.09
2023-05-16T12:16:00,mfh,76.01
2023-05-16T12:17:00,mfh,76.99
2023-05-16T12:18:00,mfh,77.58
2023-05-16T12:19:00,mfh,77.40
2023-05-16T12:20:00,mfh,77.26
2023-05-16T12:21:00,mfh,77.31
2023-05-16T12:22:00,mfh,77.31
2023-05-16T12:23:00,mfh,76.92
2023-05-16T12:24:00,mfh,76.41
2023-05-16T12:25:00,mfh,76.40
2023-05-16T12:26:00,mfh,76.54
2023-05-16T12:27:00,mfh,75.83
2023-05-16T12:28:00,mfh,75.58
2023-05-16T12:29:00,mfh,75.88
2023-05-16T12:30:00,mfh,76.33
2023-05-16T12:31:00,mfh,74.38
2023-05-16T12:32:00,mfh,74.83
2023-05-16T12:33:00,mfh,75.01
2023-05-16T12:34:00,mfh,74.12
2023-05-16T12:35:00,mfh,73.95
2023-05-16T12:36:00,mfh,74.17
2023-05-16T12:37:00,mfh,74.34
2023-05-16T12:38:00,mfh,73.17
2023-05-16T12:39:00,mfh,73.72
2023-05-16T12:40:00,mfh,73.82
2023-05-16T12:41:00,mfh,73.64
2023-05-16T12:42:00,mfh,74.19
2023-05-16T12:43:00,mfh,74.42
2023-05-16T12:44:00,mfh,74.79
2023-05-16T12:45:00,mfh,75.16
2023-05-16T12:46:00,mfh,74.81
2023-05-16T12:47:00,mfh,74.09
2023-05-16T12:48:00,mfh,74.22
2023-05-16T12:49:00,mfh,73.28
2023-05-16T12:50:00,mfh,73.41
2023-05-16T12:51:00,mfh,73.52
2023-05-16T12:52:00,mfh,74.14
2023-05-16T12:53:00,mfh,73.78
2023-05-16T12:54:00,mfh,74.01
2023-05-16T12:55:00,mfh,74.10
2023-05-16T12:56:00,mfh,74.31
2023-05-16T12:57:00,mfh,74.40
2023-05-16T12:58:00,mfh,74.35
2023-05-16T12:59:00,mfh,74.43
2023-05-16T13:00:00,mfh,73.96
2023-05-16T13:01:00,mfh,73.72
2023-05-16T13:02:00,mfh,73.82
2023-05-16T13:03:00,mfh,74.35
2023-05-16T13:04:00,mfh,74.59
2023-05-16T13:05:00,mfh,74.62
2023-05-16T13:06:00,mfh,74.57
2023-05-16T13:07:00,mfh,75.56
2023-05-16T13:08:00,mfh,74.88
2023-05-16T13:09:00,mfh,74.78
2023-05-16T13:10:00,mfh,74.78
2023-05-16T13:11:00,mfh,75.06
2023-05-16T13:12:00,mfh,74.32
2023-05-16T13:13:00,mfh,74.00
2023-05-16T13:14:00,mfh,73.80
2023-05-16T13:15:00,mfh,74.20
2023-05-16T13:16:00,mfh,74.62
2023-05-16T13:17:00,mfh,74.84
2023-05-16T13:18:00,mfh,74.79